Regional Weather Roundup
Issued by NWS

Home | Current Version | Previous Version | Graphics & Text | Print | Product List | Glossary On
Versions: 1 2 3 4 5 6 7 8 9 10 11 12 13 14 15 16 17 18 19 20 21 22 23 24 25 26 27 28 29 30 31 32 33 34 35 36 37 38 39 40 41 42 43 44 45 46 47 48 49 50
000
ASUS43 KOAX 101402
RWRNE

WEATHER ROUNDUP FOR NEBRASKA
NATIONAL WEATHER SERVICE OMAHA NE
800 AM CST WED FEB 10 2016

NOTES: SATELLITE DATA IS BEING USED TO AUGMENT CLOUD COVER ABOVE
       12000 FEET.
       "FAIR" INDICATES FEW OR NO CLOUDS BELOW 12,000 FEET WITH NO
       SIGNIFICANT WEATHER AND/OR OBSTRUCTIONS TO VISIBILITY.

  * THESE STATIONS DO NOT REPORT WEATHER SUCH AS RAIN...SNOW OR FOG.

NEZ001>004-019>022-054>056-101500-
NEBRASKA PANHANDLE

CITY           SKY/WX    TMP DP  RH WIND       PRES   REMARKS
SCOTTSBLUFF    CLEAR     36  25  64 NW13      30.04R WCI  27
ALLIANCE       CLOUDY    30  22  72 W8        30.00R WCI  22
CHADRON        CLOUDY    34  24  67 SW9       30.00R WCI  27
SIDNEY         CLOUDY    30  21  69 NW12      30.03F WCI  20
$$

NEZ057>060-069>072-079>082-101500-
SOUTHWEST NEBRASKA

CITY           SKY/WX    TMP DP  RH WIND       PRES   REMARKS
NORTH PLATTE   CLEAR     28  22  78 W10       29.96F WCI  19
IMPERIAL       CLOUDY    36  22  56 W16       30.01F WCI  26
LEXINGTON      CLOUDY    24  21  89 NW10      29.94F WCI  13
MCCOOK         CLOUDY    29  23  78 W12       29.99F WCI  19
$$

NEZ005>010-023>029-035>040-094-101500-
NORTH CENTRAL NEBRASKA

CITY           SKY/WX    TMP DP  RH WIND       PRES   REMARKS
VALENTINE      CLEAR     32  26  78 W9        29.88S WCI  24
AINSWORTH      CLEAR     32  27  81 W7        29.88S WCI  26
BROKEN BOW     CLEAR     30  24  78 VRB3      29.89F
ORD            CLOUDY    19  17  92 NW3       29.89S
$$

NEZ041-046>049-061>064-073>077-083>087-101500-
SOUTH CENTRAL NEBRASKA

CITY           SKY/WX    TMP DP  RH WIND       PRES   REMARKS
GRAND ISLAND   CLOUDY    23  20  88 SW7       29.91F WCI  15
AURORA         CLOUDY    23  20  89 SW9       29.92F WCI  13
HASTINGS       CLOUDY    27  21  78 SW8       29.92F WCI  19
HEBRON         CLEAR     24  20  82 SW8       29.97F WCI  16
YORK           CLEAR     23  19  86 S12       29.93F WCI  12
$$

NEZ011>018-030>034-042>045-101500-
NORTHEAST NEBRASKA

CITY           SKY/WX    TMP DP  RH WIND       PRES   REMARKS
NORFOLK        PTCLDY    24  20  84 S5        29.91F WCI  18
ALBION         CLOUDY    22  20  89 CALM      29.90F
BLAIR          CLOUDY    27  19  72 S10       29.97F WCI  17
COLUMBUS *     CLOUDY    25  12  58 S6        29.94S WCI  18
FREMONT        CLOUDY    26  17  68 SE8       29.97F WCI  18
$$

NEZ050>053-065>068-078-088>093-101500-
SOUTHEAST NEBRASKA

CITY           SKY/WX    TMP DP  RH WIND       PRES   REMARKS
LINCOLN        PTCLDY    27  17  66 S12       29.97F WCI  17
OMAHA EPPLEY   CLOUDY    26  19  74 S13       30.00F WCI  15
BEATRICE       CLEAR     26  16  66 S10       29.99F WCI  15
FALLS CITY     CLOUDY    27  14  58 S9        30.05F WCI  18
NEBRASKA CITY  CLOUDY    27  17  68 S12       30.01F WCI  16
$$

NEZ044-045-051>053-067-101500-
OMAHA AREA

CITY           SKY/WX    TMP DP  RH WIND       PRES   REMARKS
OMAHA EPPLEY   CLOUDY    26  19  74 S13       30.00F WCI  15
BLAIR          CLOUDY    27  19  72 S10       29.97F WCI  17
FREMONT        CLOUDY    26  17  68 SE8       29.97F WCI  18
OFFUTT AFB     CLOUDY    26  19  73 SE9       30.00F WCI  17
WAHOO          FAIR      26  20  79 SE8       29.97F WCI  17
$$



USA.gov is the U.S. government's official web portal to all federal, state and local government web resources and services.